N8IR-19 Weather Reports


Display with metric or nautical units.
time (UTC)temp
F
wind
direction
speed
MPH
gust
MPH
rain 1hr
in
rain 24hr
in
rain mn
in
humidity
%
barometer
mb
20260505224921 51 0 6.0 8.0 0.16 0.63 0.63 51 988.7
20260505224418 52 23 6.0 8.0 0.18 0.63 0.63 51 988.7
20260505223920 52 0 9.0 9.0 0.20 0.63 0.63 51 988.8
20260505223420 52 0 6.0 8.0 0.23 0.63 0.63 51 988.9
20260505222918 52 0 6.0 8.0 0.25 0.62 0.62 51 988.8
20260505222420 51 0.0 1.0 0.23 0.59 0.59 51 989.1
20260505221918 51 0 2.0 4.0 0.24 0.59 0.59 51 989.0
20260505221420 52 338 3.0 4.0 0.23 0.58 0.58 51 988.8
20260505220938 51 338 3.0 5.0 0.22 0.56 0.56 51 988.7
20260505220420 51 338 4.0 5.0 0.20 0.53 0.53 51 988.8
20260505215920 52 315 3.0 4.0 0.18 0.51 0.51 50 988.7
20260505215418 52 338 6.0 9.0 0.16 0.48 0.48 51 988.6
20260505214922 52 338 7.0 10.0 0.15 0.47 0.47 51 988.5
20260505214441 52 0 8.0 11.0 0.14 0.45 0.45 51 988.4
20260505213918 52 0 11.0 12.0 0.13 0.43 0.43 51 988.3
20260505213418 52 0 9.0 11.0 0.10 0.40 0.40 51 988.4
20260505212917 52 315 2.0 3.0 0.08 0.37 0.37 50 988.5
20260505212419 52 338 2.0 5.0 0.08 0.36 0.36 50 988.3
20260505211918 52 338 2.0 3.0 0.07 0.35 0.35 50 988.0
20260505211419 52 338 3.0 5.0 0.08 0.35 0.35 50 988.1
20260505210938 52 315 3.0 4.0 0.08 0.34 0.34 50 988.1
20260505210418 52 315 2.0 4.0 0.08 0.33 0.33 50 988.2
20260505205918 52 338 4.0 6.0 0.09 0.33 0.33 50 988.2
20260505205418 52 270 2.0 4.0 0.10 0.32 0.32 50 988.1
20260505204918 53 338 4.0 6.0 0.12 0.32 0.32 50 988.3
20260505204418 53 293 5.0 10.0 0.13 0.31 0.31 50 988.2
20260505203918 53 293 5.0 6.0 0.13 0.30 0.30 50 988.2
20260505203418 53 293 6.0 9.0 0.14 0.30 0.30 50 988.4
20260505202938 53 270 7.0 9.0 0.14 0.29 0.29 50 988.4
20260505202417 54 293 7.0 10.0 0.13 0.28 0.28 50 988.5
20260505201919 54 270 8.0 11.0 0.14 0.28 0.28 50 988.3
20260505201418 54 293 7.0 9.0 0.13 0.27 0.27 50 988.4
20260505200918 55 293 8.0 11.0 0.13 0.26 0.26 50 988.5
20260505200418 55 270 9.0 12.0 0.14 0.25 0.25 50 988.6
20260505195939 56 270 5.0 8.0 0.14 0.24 0.24 50 988.6
20260505195418 56 270 9.0 12.0 0.13 0.22 0.22 50 988.6
20260505194918 57 270 10.0 13.0 0.12 0.20 0.20 50 988.5
20260505194419 57 270 7.0 8.0 0.11 0.18 0.18 50 988.5
20260505193920 57 270 4.0 6.0 0.11 0.17 0.17 50 988.4
20260505193440 57 270 3.0 3.0 0.11 0.16 0.16 50 988.4
20260505192921 57 270 3.0 4.0 0.11 0.15 0.15 50 988.4
20260505192419 57 270 5.0 6.0 0.12 0.15 0.15 50 988.3
20260505191920 57 270 4.0 6.0 0.12 0.14 0.14 50 988.3
20260505191418 57 248 4.0 4.0 0.12 0.14 0.14 50 988.2
20260505190919 57 248 4.0 4.0 0.12 0.13 0.13 50 988.3
20260505190420 58 248 3.0 3.0 0.10 0.11 0.11 50 988.2
20260505185921 58 248 4.0 7.0 0.10 0.10 0.10 50 988.2
20260505185420 58 270 3.0 3.0 0.09 0.09 0.09 50 988.2
20260505184920 58 270 3.0 4.0 0.08 0.08 0.08 50 988.1
20260505184421 58 270 2.0 3.0 0.07 0.07 0.07 51 988.1
20260505183917 58 270 2.0 3.0 0.06 0.06 0.06 51 988.1
20260505183439 58 270 3.0 4.0 0.05 0.05 0.05 51 988.1
20260505182938 59 270 3.0 4.0 0.04 0.04 0.04 52 988.1
20260505182441 59 270 3.0 4.0 0.03 0.03 0.03 53 988.2
20260505181920 59 270 6.0 7.0 0.02 0.02 0.02 54 988.2
20260505181420 59 270 6.0 8.0 0.02 0.02 0.02 54 988.1
20260505180920 60 270 7.0 9.0 0.01 0.01 0.01 55 988.1
20260505180418 60 270 7.0 9.0 0.01 0.01 0.01 56 988.0
20260505175938 61 270 7.0 9.0 0.00 0.00 0.00 56 988.0
20260505175420 61 248 7.0 8.0 0.00 0.00 0.00 56 988.0
20260505174919 61 248 7.0 8.0 0.00 0.00 0.00 56 988.0
20260505174420 61 248 8.0 9.0 0.00 0.00 0.00 55 987.9
20260505173920 61 248 8.0 9.0 0.00 0.00 0.00 55 988.0
20260505173422 61 248 9.0 10.0 0.00 0.00 0.00 55 988.0
20260505172920 61 248 6.0 8.0 0.00 0.00 0.00 55 988.0
20260505172417 61 225 7.0 10.0 0.00 0.00 0.00 54 988.0
20260505171940 62 225 5.0 9.0 0.00 0.00 0.00 54 988.0
20260505171420 62 248 8.0 12.0 0.00 0.00 0.00 54 987.9
20260505170921 62 225 5.0 8.0 0.00 0.00 0.00 54 987.9
20260505170417 62 248 8.0 12.0 0.00 0.00 0.00 54 987.9
20260505165917 62 225 9.0 11.0 0.00 0.00 0.00 53 987.8
20260505165418 62 225 11.0 14.0 0.00 0.00 0.00 53 987.9
20260505164917 62 225 14.0 16.0 0.00 0.00 0.00 54 987.8
20260505164420 62 248 11.0 13.0 0.00 0.00 0.00 53 987.8
20260505163920 62 225 14.0 15.0 0.00 0.00 0.00 53 987.8
20260505163417 62 225 12.0 15.0 0.00 0.00 0.00 54 987.9
20260505162919 62 225 13.0 17.0 0.00 0.00 0.00 53 987.9
20260505162419 62 248 13.0 15.0 0.00 0.00 0.00 54 987.9
20260505161918 62 248 12.0 18.0 0.00 0.00 0.00 53 988.0
20260505161419 62 248 9.0 12.0 0.00 0.00 0.00 53 987.8
20260505160940 62 248 11.0 15.0 0.00 0.00 0.00 54 987.8
20260505160417 62 248 10.0 13.0 0.00 0.00 0.00 53 987.8
20260505152917 64 248 14.0 19.0 0.00 0.00 0.00 52 987.7
20260505152418 64 248 15.0 19.0 0.00 0.00 0.00 51 987.5
20260505151918 64 248 12.0 16.0 0.00 0.00 0.00 51 987.3
20260505151417 64 248 11.0 15.0 0.00 0.00 0.00 50 987.2
20260505150917 65 225 11.0 15.0 0.00 0.00 0.00 50 987.2
20260505150417 65 248 10.0 14.0 0.00 0.00 0.00 50 986.9
20260505140417 63 248 11.0 17.0 0.00 0.00 0.00 50 985.7
20260505124920 62 225 12.0 15.0 0.00 0.00 0.00 52 985.8
20260505124419 62 225 8.0 11.0 0.00 0.00 0.00 53 985.7
20260505123920 62 248 7.0 9.0 0.00 0.00 0.00 53 985.7
20260505123418 62 225 10.0 12.0 0.00 0.00 0.00 52 985.8
20260505122920 62 225 10.0 12.0 0.00 0.00 0.00 52 985.7
20260505122458 62 225 9.0 11.0 0.00 0.00 0.00 53 985.7
20260505121920 62 248 9.0 11.0 0.00 0.00 0.00 53 985.6
20260505121419 61 248 10.0 13.0 0.00 0.00 0.00 52 985.6
20260505120917 61 225 10.0 11.0 0.00 0.00 0.00 53 985.5
20260505120420 61 225 12.0 13.0 0.00 0.00 0.00 53 985.4
20260505115937 61 225 11.0 13.0 0.00 0.00 0.00 53 985.2
20260505115417 61 248 12.0 14.0 0.00 0.00 0.00 52 985.2
20260505114917 62 225 11.0 14.0 0.00 0.00 0.00 53 985.0
20260505114417 62 225 12.0 13.0 0.00 0.00 0.00 52 984.8
20260505113919 62 225 12.0 14.0 0.00 0.00 0.00 53 984.6
20260505113420 62 225 14.0 17.0 0.00 0.00 0.00 52 984.5
20260505112920 62 225 14.0 17.0 0.00 0.00 0.00 53 984.3
20260505112417 62 225 13.0 17.0 0.00 0.00 0.00 52 984.2
20260505111920 62 225 14.0 17.0 0.00 0.00 0.00 52 983.9
20260505111439 62 225 12.0 14.0 0.00 0.00 0.00 52 984.0
20260505110917 62 225 14.0 18.0 0.00 0.00 0.00 51 984.1
20260505110417 62 225 14.0 17.0 0.00 0.00 0.00 51 983.9
20260505101939 63 225 17.0 20.0 0.00 0.00 0.00 50 983.7
20260505101417 63 225 17.0 20.0 0.00 0.00 0.00 50 983.6
20260505100919 63 225 19.0 23.0 0.00 0.00 0.00 50 983.7
20260505100419 63 225 24.0 32.0 0.00 0.00 0.00 49 983.6
20260505095921 63 225 22.0 29.0 0.00 0.00 0.00 50 983.6
20260505095419 63 225 21.0 24.0 0.00 0.00 0.00 49 983.6
20260505094919 63 225 23.0 29.0 0.00 0.00 0.00 49 983.3
20260505094419 63 225 22.0 27.0 0.00 0.00 0.00 50 983.2
20260505093936 63 225 21.0 25.0 0.00 0.00 0.00 50 983.1
20260505093419 63 203 20.0 23.0 0.00 0.00 0.00 50 983.0
20260505092918 64 225 16.0 22.0 0.00 0.00 0.00 50 983.1
20260505092520 64 225 20.0 25.0 0.00 0.00 0.00 50 983.1
20260505091917 64 225 15.0 16.0 0.00 0.00 0.00 50 983.1
20260505091418 64 225 15.0 19.0 0.00 0.00 0.00 50 983.1
20260505090916 64 225 16.0 21.0 0.00 0.00 0.00 50 983.2
20260505090439 64 225 14.0 16.0 0.00 0.00 0.00 50 983.1
20260505085939 64 225 16.0 20.0 0.00 0.00 0.00 50 983.1
20260505085417 64 225 15.0 19.0 0.00 0.00 0.00 51 983.0
20260505084957 64 225 15.0 18.0 0.00 0.00 0.00 51 982.9
20260505084419 64 225 15.0 18.0 0.00 0.00 0.00 51 983.0
20260505083941 64 225 12.0 14.0 0.00 0.00 0.00 51 982.9
20260505083419 64 203 11.0 15.0 0.00 0.00 0.00 51 982.8
20260505082919 64 225 11.0 13.0 0.00 0.00 0.00 51 982.7
20260505082417 64 225 10.0 13.0 0.00 0.00 0.00 51 982.6
20260505081918 64 225 9.0 13.0 0.00 0.00 0.00 51 982.7
20260505081420 64 225 10.0 12.0 0.00 0.00 0.00 51 982.8
20260505080919 64 203 10.0 11.0 0.00 0.00 0.00 51 982.7
20260505080419 64 225 11.0 13.0 0.00 0.00 0.00 51 982.6
20260505075916 64 225 11.0 13.0 0.00 0.00 0.00 50 982.5
20260505075417 64 225 10.0 13.0 0.00 0.00 0.00 50 982.5
20260505074941 64 225 10.0 13.0 0.00 0.00 0.00 50 982.4
20260505074419 64 225 9.0 10.0 0.00 0.00 0.00 50 982.5
20260505073921 65 225 9.0 11.0 0.00 0.00 0.00 50 982.5
20260505073419 65 225 8.0 10.0 0.00 0.00 0.00 50 982.6
20260505072919 65 225 7.0 8.0 0.00 0.00 0.00 50 982.5
20260505072417 65 225 6.0 6.0 0.00 0.00 0.00 49 982.7
20260505071919 66 225 5.0 6.0 0.00 0.00 0.00 48 982.6
20260505071439 66 225 4.0 6.0 0.00 0.00 0.00 48 982.7
20260505070917 66 225 5.0 6.0 0.00 0.00 0.00 47 982.6
20260505070419 67 225 5.0 6.0 0.00 0.00 0.00 46 982.7
20260505065940 67 248 6.0 8.0 0.00 0.00 0.00 46 982.6
20260505065437 67 225 4.0 5.0 0.00 0.00 0.00 46 982.7
20260505064919 67 225 5.0 6.0 0.00 0.00 0.00 46 982.7
20260505064420 67 248 5.0 6.0 0.00 0.00 0.00 46 982.9
20260505063941 67 225 8.0 10.0 0.00 0.00 0.00 45 983.0
20260505063441 67 248 9.0 12.0 0.00 0.00 0.00 47 983.0
20260505062922 67 225 7.0 9.0 0.00 0.00 0.00 47 983.0
20260505062418 68 270 10.0 12.0 0.00 0.00 0.00 46 982.9
20260505061918 68 225 11.0 13.0 0.00 0.00 0.00 45 982.7
20260505061421 67 225 19.0 25.0 0.00 0.00 0.00 45 982.5
20260505060921 67 225 17.0 26.0 0.00 0.00 0.00 46 982.4
20260505060442 67 225 16.0 20.0 0.00 0.00 0.00 46 982.3
20260505055921 67 225 16.0 23.0 0.00 0.00 0.00 46 982.3
20260505055418 67 225 16.0 23.0 0.00 0.00 0.00 47 982.3
20260505054921 67 203 12.0 17.0 0.00 0.00 0.00 47 982.3
20260505054420 67 203 11.0 18.0 0.00 0.00 0.00 47 982.4
20260505053921 67 225 8.0 12.0 0.00 0.00 0.00 47 982.2
20260505053421 67 203 11.0 14.0 0.00 0.00 0.00 47 982.4
20260505052922 67 203 7.0 12.0 0.00 0.00 0.00 47 982.3
20260505052420 67 203 11.0 18.0 0.00 0.00 0.00 47 982.4
20260505051920 67 180 11.0 18.0 0.00 0.00 0.00 47 982.4
20260505051420 67 203 12.0 19.0 0.00 0.00 0.00 46 982.6
20260505050941 67 203 9.0 16.0 0.00 0.00 0.00 46 982.6
20260505050441 68 203 10.0 15.0 0.00 0.00 0.00 46 982.7
20260505041418 68 203 9.0 14.0 0.00 0.00 0.00 46 982.9
20260505040918 68 203 14.0 21.0 0.00 0.00 0.00 46 982.9
20260505040440 68 225 11.0 16.0 0.00 0.00 0.00 46 982.9
20260505035939 67 180 8.0 13.0 0.00 0.00 0.00 46 983.0
20260505035421 67 203 10.0 16.0 0.00 0.00 0.00 47 983.0
20260505034918 67 180 9.0 15.0 0.00 0.00 0.00 46 983.0
20260505034422 67 203 9.0 14.0 0.00 0.00 0.00 46 983.1
20260505033918 67 180 8.0 9.0 0.00 0.00 0.00 46 983.2
20260505033418 67 203 8.0 13.0 0.00 0.00 0.00 46 983.2
20260505032922 67 203 7.0 10.0 0.00 0.00 0.00 47 983.2
20260505032419 67 203 8.0 14.0 0.00 0.00 0.00 47 983.2
20260505031920 67 180 9.0 14.0 0.00 0.00 0.00 47 983.3
20260505031420 67 203 6.0 11.0 0.00 0.00 0.00 47 983.4
20260505030939 67 225 7.0 13.0 0.00 0.00 0.00 46 983.4
20260505030418 67 203 9.0 15.0 0.00 0.00 0.00 46 983.4
20260505025921 67 203 7.0 13.0 0.00 0.00 0.00 46 983.5
20260505025418 67 203 8.0 14.0 0.00 0.00 0.00 45 983.6
20260505024920 67 203 7.0 10.0 0.00 0.00 0.00 46 983.5
20260505024421 67 203 7.0 9.0 0.00 0.00 0.00 45 983.4
20260505023920 67 203 9.0 16.0 0.00 0.00 0.00 45 983.4
20260505023418 68 203 7.0 11.0 0.00 0.00 0.00 45 983.4
20260505022921 68 203 10.0 17.0 0.00 0.00 0.00 45 983.4
20260505022418 68 203 11.0 19.0 0.00 0.00 0.00 45 983.4
20260505021921 68 203 11.0 15.0 0.00 0.00 0.00 45 983.4
20260505021420 68 203 9.0 13.0 0.00 0.00 0.00 45 983.3
20260505020939 68 203 9.0 14.0 0.00 0.00 0.00 44 983.3
20260505020418 68 225 12.0 18.0 0.00 0.00 0.00 44 983.4
20260505015918 68 225 13.0 20.0 0.00 0.00 0.00 43 983.4
20260505015420 68 203 9.0 14.0 0.00 0.00 0.00 43 983.5
20260505014922 69 203 8.0 17.0 0.00 0.00 0.00 43 983.4
20260505014421 69 225 16.0 23.0 0.00 0.00 0.00 42 983.3
20260505013918 69 225 12.0 17.0 0.00 0.00 0.00 42 983.3
20260505013421 69 203 8.0 14.0 0.00 0.00 0.00 41 983.2
20260505012920 70 203 7.0 10.0 0.00 0.00 0.00 40 983.1
20260505012418 70 180 7.0 9.0 0.00 0.00 0.00 39 983.0
20260505011918 70 180 9.0 18.0 0.00 0.00 0.00 39 983.1
20260505011421 70 203 8.0 14.0 0.00 0.00 0.00 39 983.0
20260505010921 70 203 7.0 10.0 0.00 0.00 0.00 39 983.0
20260505010440 70 203 15.0 19.0 0.00 0.00 0.00 39 983.0
20260505005920 70 203 13.0 18.0 0.00 0.00 0.00 39 982.9
20260505005418 70 203 8.0 14.0 0.00 0.00 0.00 39 982.9
20260505004941 70 203 9.0 14.0 0.00 0.00 0.00 39 982.9
20260505004421 71 203 9.0 13.0 0.00 0.00 0.00 38 982.7
20260505003918 71 225 12.0 14.0 0.00 0.00 0.00 38 982.7
20260505003418 71 225 14.0 18.0 0.00 0.00 0.00 38 982.6
20260505002918 71 225 16.0 21.0 0.00 0.00 0.00 38 982.4
20260505002438 71 225 14.0 18.0 0.00 0.00 0.00 38 982.4
20260505001958 71 225 16.0 18.0 0.00 0.00 0.00 38 982.4
20260505001418 71 225 16.0 17.0 0.00 0.00 0.00 37 982.4
20260505000918 72 203 16.0 21.0 0.00 0.00 0.00 37 982.3
20260505000420 72 225 17.0 23.0 0.00 0.00 0.00 37 982.2
20260504235918 72 225 18.0 20.0 0.00 0.00 0.00 38 982.2
20260504235418 72 225 19.0 24.0 0.00 0.00 0.00 38 982.2
20260504234918 72 225 19.0 22.0 0.00 0.00 0.00 38 982.3
20260504234417 72 225 21.0 29.0 0.00 0.00 0.00 38 982.1
20260504233938 72 225 18.0 22.0 0.00 0.00 0.00 37 982.1
20260504233418 72 225 16.0 21.0 0.00 0.00 0.00 37 982.2
20260504232918 73 225 21.0 27.0 0.00 0.00 0.00 36 981.9
20260504232418 73 225 20.0 24.0 0.00 0.00 0.00 37 982.0
20260504231918 73 225 19.0 25.0 0.00 0.00 0.00 37 981.9
20260504231418 73 225 16.0 22.0 0.00 0.00 0.00 38 981.9
20260504230919 73 225 22.0 25.0 0.00 0.00 0.00 37 981.8
20260504230418 74 225 19.0 20.0 0.00 0.00 0.00 37 981.8
20260504225919 74 225 19.0 26.0 0.00 0.00 0.00 37 981.7
20260504225418 74 225 19.0 25.0 0.00 0.00 0.00 38 981.7